Grosse Ile, MI

9:21 PM EDT on July 24, 2017 (GMT -0400)
Grosse Ile Municipal

Weather History for KONZ - January, 2013

Change the Weather History Date:

Thursday, January 31, 2013

  Actual Average (KDTW) Record (KDTW)
Temperature  
Mean Temperature 26 °F -  
Max Temperature 35 °F 32 °F 60 °F (1989)
Min Temperature 17 °F 18 °F -7 °F (1920)
Degree Days  
Heating Degree Days 39    
Moisture  
Dew Point 15 °F    
Average Humidity 67    
Maximum Humidity 86    
Minimum Humidity 54    
Precipitation  
Precipitation 0.00 in - - ()
Sea Level Pressure  
Sea Level Pressure 29.63 in    
Wind  
Wind Speed 20 mph (West)    
Max Wind Speed 29 mph    
Max Gust Speed 39 mph    
Visibility 8 miles    
Events Snow    
Averages and records for this station are not official NWS values.
T = Trace of Precipitation, MM = Missing Value Source: NWS Daily Summary

Daily Weather History Graph

Daily Weather History Graph

Search for Another Location

Airport or City:

Trip Planner

Search our weather history database for the weather conditions in past years. The results will help you decide how hot, cold, wet, or windy it might be!

Date:

Astronomy

Jan. 31, 2013 Rise Set
Actual Time 7:46 AM EST 5:46 PM EST
Civil Twilight 7:16 AM EST 6:16 PM EST
Nautical Twilight 6:43 AM EST 6:49 PM EST
Astronomical Twilight 6:10 AM EST 7:22 PM EST
Moon 10:54 PM EST (1/31) 9:39 AM EST (1/31)
Length of Visible Light 10h 59m
Length of Day
10h 00m
Waning Gibbous, 80% of the Moon is Illuminated
Jan 31
Waning Gibbous
Feb 3
Last Quarter
Feb 10
New
Feb 17
First Quarter
Feb 25
Full

Hourly Weather History & Observations

Time (EST) Temp. Windchill Dew Point Humidity Pressure Visibility Wind Dir Wind Speed Gust Speed Precip Events Conditions
12:14 AM 35.6 °F 23.7 °F 28.4 °F 75% 29.25 in 10.0 mi West 24.2 mph 32.2 mph N/A   Overcast
12:34 AM 33.8 °F 21.3 °F 24.8 °F 70% 29.27 in 10.0 mi West 24.2 mph 38.0 mph N/A   Overcast
12:54 AM 33.8 °F 22.2 °F 21.2 °F 60% 29.29 in 10.0 mi West 20.7 mph 33.4 mph N/A   Mostly Cloudy
1:15 AM 32.0 °F 17.9 °F 21.2 °F 64% 29.31 in 10.0 mi West 28.8 mph 38.0 mph N/A   Overcast
1:34 AM 30.2 °F 16.2 °F 19.4 °F 64% 29.33 in 10.0 mi West 25.3 mph 33.4 mph N/A   Scattered Clouds
1:54 AM 30.2 °F 17.1 °F 17.6 °F 60% 29.35 in 10.0 mi West 21.9 mph 39.1 mph N/A   Mostly Cloudy
2:15 AM 30.2 °F 16.5 °F 17.6 °F 60% 29.36 in 10.0 mi West 24.2 mph 32.2 mph N/A   Overcast
2:34 AM 30.2 °F 19.3 °F 17.6 °F 60% 29.38 in 10.0 mi West 15.0 mph 29.9 mph N/A   Overcast
2:54 AM 30.2 °F 19.3 °F 17.6 °F 60% 29.39 in 10.0 mi West 15.0 mph 23.0 mph N/A   Overcast
3:15 AM 30.2 °F 17.4 °F 19.4 °F 64% 29.40 in 10.0 mi WNW 20.7 mph 26.5 mph N/A   Overcast
3:34 AM 28.4 °F 16.6 °F 17.6 °F 64% 29.41 in 10.0 mi West 16.1 mph 29.9 mph N/A   Overcast
3:54 AM 28.4 °F 14.7 °F 17.6 °F 64% 29.41 in 10.0 mi West 21.9 mph 29.9 mph N/A   Overcast
4:14 AM 28.4 °F 14.1 °F 17.6 °F 64% 29.42 in 10.0 mi West 24.2 mph 32.2 mph N/A   Overcast
4:34 AM 28.4 °F 15.4 °F 17.6 °F 64% 29.44 in 10.0 mi West 19.6 mph 27.6 mph N/A   Overcast
4:54 AM 28.4 °F 15.4 °F 17.6 °F 64% 29.45 in 10.0 mi West 19.6 mph 29.9 mph N/A   Overcast
5:14 AM 26.6 °F 14.3 °F 17.6 °F 69% 29.47 in 10.0 mi West 16.1 mph 29.9 mph N/A Snow Light Snow
5:34 AM 26.6 °F 12.0 °F 15.8 °F 64% 29.48 in 10.0 mi West 23.0 mph 32.2 mph N/A   Overcast
5:54 AM 26.6 °F 14.3 °F 17.6 °F 69% 29.49 in 7.0 mi WSW 16.1 mph 27.6 mph N/A Snow Light Snow
6:14 AM 24.8 °F 11.5 °F 19.4 °F 80% 29.50 in 5.0 mi West 17.3 mph 26.5 mph N/A Snow Light Snow
6:34 AM 24.8 °F 13.4 °F 21.2 °F 86% 29.51 in 1.2 mi West 12.7 mph 26.5 mph N/A Snow Light Snow
6:55 AM 24.8 °F 11.1 °F 17.6 °F 74% 29.52 in 7.0 mi West 18.4 mph 29.9 mph N/A Snow Light Snow
7:14 AM 24.8 °F 11.1 °F 15.8 °F 69% 29.53 in 10.0 mi WSW 18.4 mph 31.1 mph N/A   Overcast
7:34 AM 24.8 °F 11.1 °F 17.6 °F 74% 29.55 in 10.0 mi West 18.4 mph 27.6 mph N/A   Overcast
7:55 AM 24.8 °F 9.6 °F 15.8 °F 69% 29.56 in 10.0 mi WSW 23.0 mph 32.2 mph N/A   Overcast
8:14 AM 24.8 °F 11.9 °F 17.6 °F 74% 29.57 in 5.0 mi West 16.1 mph 21.9 mph N/A Snow Light Snow
8:34 AM 24.8 °F 13.4 °F 14.0 °F 64% 29.58 in 10.0 mi West 12.7 mph 19.6 mph N/A   Overcast
8:54 AM 24.8 °F 10.7 °F 14.0 °F 64% 29.59 in 10.0 mi West 19.6 mph 24.2 mph N/A   Overcast
9:14 AM 24.8 °F 10.3 °F 12.2 °F 59% 29.60 in 10.0 mi WSW 20.7 mph 32.2 mph N/A   Overcast
9:34 AM 24.8 °F 12.4 °F 12.2 °F 59% 29.61 in 10.0 mi West 15.0 mph 31.1 mph N/A   Overcast
9:54 AM 24.8 °F 10.7 °F 12.2 °F 59% 29.62 in 10.0 mi West 19.6 mph 27.6 mph N/A   Overcast
10:34 AM 24.8 °F 10.7 °F 12.2 °F 59% 29.64 in 10.0 mi WSW 19.6 mph 28.8 mph N/A   Overcast
10:54 AM 24.8 °F 11.1 °F 17.6 °F 74% 29.65 in 10.0 mi WSW 18.4 mph 26.5 mph N/A   Overcast
11:14 AM 23.0 °F 8.0 °F 17.6 °F 80% 29.67 in 2.5 mi WSW 20.7 mph 28.8 mph N/A Snow Light Snow
11:34 AM 23.0 °F 10.1 °F 17.6 °F 80% 29.67 in 2.0 mi WSW 15.0 mph 28.8 mph N/A Snow Light Snow
11:54 AM 23.0 °F 10.1 °F 17.6 °F 80% 29.67 in 2.0 mi West 15.0 mph 28.8 mph N/A Snow Light Snow
12:14 PM 24.8 °F 10.7 °F 14.0 °F 64% 29.67 in 10.0 mi West 19.6 mph 27.6 mph N/A   Overcast
12:34 PM 24.8 °F 10.0 °F 12.2 °F 59% 29.68 in 10.0 mi West 21.9 mph 32.2 mph N/A   Overcast
12:54 PM 24.8 °F 11.5 °F 12.2 °F 59% 29.69 in 10.0 mi West 17.3 mph 32.2 mph N/A   Overcast
1:14 PM 23.0 °F 9.6 °F 14.0 °F 68% 29.69 in 10.0 mi West 16.1 mph 28.8 mph N/A Snow Light Snow
1:35 PM 23.0 °F 8.3 °F 15.8 °F 74% 29.69 in 3.0 mi West 19.6 mph 27.6 mph N/A Snow Light Snow
1:54 PM 24.8 °F 11.1 °F 12.2 °F 59% 29.69 in 10.0 mi West 18.4 mph 27.6 mph N/A   Overcast
2:14 PM 24.8 °F 9.0 °F 10.4 °F 54% 29.70 in 10.0 mi WSW 25.3 mph 31.1 mph N/A   Overcast
2:35 PM 24.8 °F 10.3 °F 14.0 °F 64% 29.71 in 10.0 mi WSW 20.7 mph 31.1 mph N/A   Overcast
2:54 PM 24.8 °F 12.4 °F 15.8 °F 69% 29.71 in 7.0 mi WSW 15.0 mph 27.6 mph N/A   Overcast
3:14 PM 24.8 °F 10.7 °F 12.2 °F 59% 29.72 in 10.0 mi WSW 19.6 mph 28.8 mph N/A   Overcast
3:34 PM 23.0 °F 10.1 °F 14.0 °F 68% 29.72 in 10.0 mi West 15.0 mph 28.8 mph N/A Snow Light Snow
3:54 PM 24.8 °F 11.1 °F 12.2 °F 59% 29.73 in 10.0 mi West 18.4 mph 26.5 mph N/A   Overcast
4:14 PM 23.0 °F 8.0 °F 12.2 °F 63% 29.73 in 5.0 mi West 20.7 mph 28.8 mph N/A Snow Light Snow
4:34 PM 23.0 °F 8.3 °F 15.8 °F 74% 29.74 in 2.0 mi West 19.6 mph 24.2 mph N/A Snow Light Snow
4:54 PM 23.0 °F 8.0 °F 10.4 °F 59% 29.74 in 10.0 mi West 20.7 mph 24.2 mph N/A   Overcast
5:14 PM 23.0 °F 9.2 °F 8.6 °F 54% 29.75 in 10.0 mi West 17.3 mph 25.3 mph N/A   Overcast
5:34 PM 23.0 °F 10.1 °F 8.6 °F 54% 29.75 in 10.0 mi West 15.0 mph 23.0 mph N/A   Overcast
5:54 PM 23.0 °F 9.2 °F 8.6 °F 54% 29.76 in 10.0 mi West 17.3 mph 23.0 mph N/A   Overcast
6:14 PM 21.2 °F 6.4 °F 8.6 °F 58% 29.77 in 10.0 mi West 18.4 mph 26.5 mph N/A   Overcast
6:34 PM 21.2 °F 6.8 °F 14.0 °F 74% 29.79 in 3.0 mi West 17.3 mph 24.2 mph N/A Snow Light Snow
6:54 PM 21.2 °F 10.1 °F 15.8 °F 80% 29.79 in 4.0 mi WSW 10.4 mph 19.6 mph N/A Snow Light Snow
7:14 PM 19.4 °F 5.5 °F 12.2 °F 74% 29.80 in 10.0 mi West 15.0 mph 21.9 mph N/A   Overcast
7:34 PM 19.4 °F 5.0 °F 15.8 °F 86% 29.81 in 5.0 mi West 16.1 mph 23.0 mph N/A Snow Light Snow
7:55 PM 19.4 °F 6.6 °F 12.2 °F 74% 29.82 in 7.0 mi West 12.7 mph 18.4 mph N/A Snow Light Snow
8:14 PM 19.4 °F 4.5 °F 10.4 °F 68% 29.83 in 10.0 mi West 17.3 mph 25.3 mph N/A   Overcast
8:34 PM 19.4 °F 6.6 °F 10.4 °F 68% 29.83 in 10.0 mi WSW 12.7 mph 20.7 mph N/A   Overcast
9:14 PM 19.4 °F 6.6 °F 10.4 °F 68% 29.84 in 7.0 mi WSW 12.7 mph 24.2 mph N/A Snow Light Snow
9:34 PM 19.4 °F 6.0 °F 10.4 °F 68% 29.85 in 10.0 mi West 13.8 mph 21.9 mph N/A   Overcast
9:54 PM 19.4 °F 6.6 °F 12.2 °F 74% 29.85 in 2.0 mi West 12.7 mph 18.4 mph N/A Snow Light Snow
10:14 PM 17.6 °F 3.7 °F 12.2 °F 79% 29.86 in 10.0 mi West 13.8 mph 20.7 mph N/A Snow Light Snow
10:34 PM 17.6 °F 3.2 °F 10.4 °F 73% 29.86 in 10.0 mi WSW 15.0 mph 24.2 mph N/A   Overcast
10:54 PM 17.6 °F 2.7 °F 10.4 °F 73% 29.86 in 10.0 mi West 16.1 mph 21.9 mph N/A   Overcast
11:14 PM 17.6 °F 3.7 °F 10.4 °F 73% 29.86 in 10.0 mi West 13.8 mph 21.9 mph N/A   Mostly Cloudy
11:34 PM 17.6 °F 4.3 °F 10.4 °F 73% 29.86 in 10.0 mi West 12.7 mph 17.3 mph N/A   Mostly Cloudy
11:54 PM 17.6 °F 4.3 °F 10.4 °F 73% 29.86 in 10.0 mi West 12.7 mph 17.3 mph N/A   Overcast